Home   Weather   Dakar   Past weeks

Flag for Senegal Past Weather in Dakar, Senegal — Yesterday and Last 2 Weeks

Now
72 °F

Sunny.


Feels Like: 71 °F
Forecast: N/A
Wind: 16 mph from North

Location: Dakar / Yoff

Current Time: Apr 29, 2017 at 7:38:35 pm

Latest Report: Apr 29, 2017 at 7:00 pm


Visibility: 10 mi

Pressure: 29.89 "Hg

Humidity: 83%

Dew Point: 66 °F

Location of DakarLocation

Past Weather in Dakar — Graph

°F

Dakar Temperature Yesterday

Maximum temperature yesterday: 77 °F (at 10:30 am)
Minimum temperature yesterday: 70 °F (at 3:30 am)
Average temperature yesterday: 73 °F

High & Low Weather Summary for the Past Weeks

 TemperatureHumidityPressure
High95 °F (Apr 14, 6:00 pm)100% (Apr 25, 2:00 am)30.01 "Hg (Apr 25, 2:00 am)
Low66 °F (Apr 25, 2:00 am)16% (Apr 14, 6:00 pm)29.74 "Hg (Apr 25, 6:00 pm)
Average73 °F76%29.88 "Hg
* Reported Apr 14 6:00 pm — Apr 29 6:00 pm, Dakar, Weather by CustomWeather, © 2017

Note: Actual official high and low records may vary slightly from our data, if they occured in-between our weather recording intervals... More about our weather records

Advertising

Dakar Weather History for the Previous 24 Hours

Scroll right to see more
 ConditionsComfort  
Time TempWeatherWind HumidityBarometerVisibility
6:00 pm
Sat, Apr 29
73 °FSunny.20 mph78%29.89 "Hg10 mi
5:30 pm73 °FSunny.20 mph78%29.89 "Hg10 mi
5:00 pm75 °FSunny.20 mph74%29.89 "Hg10 mi
4:30 pm75 °FSunny.23 mph74%29.89 "Hg10 mi
4:00 pm75 °FSunny.21 mph74%29.92 "Hg10 mi
3:30 pm77 °FSunny.20 mph69%29.92 "Hg10 mi
3:00 pm77 °FSunny.21 mph69%29.92 "Hg10 mi
2:30 pm77 °FSunny.22 mph69%29.95 "Hg10 mi
2:00 pm75 °FSunny.22 mph74%29.95 "Hg10 mi
12:30 pm77 °FSunny.17 mph69%30.01 "Hg10 mi
12:00 pm75 °FSunny.17 mph74%29.98 "Hg10 mi
11:30 am75 °FSunny.16 mph74%29.98 "Hg10 mi
11:00 am75 °FSunny.15 mph74%30.01 "Hg10 mi
10:30 am75 °FSunny.17 mph74%29.98 "Hg10 mi
10:00 am73 °FSunny.16 mph78%29.98 "Hg10 mi
9:30 am73 °FSunny.17 mph83%29.98 "Hg10 mi
9:00 am72 °FSunny.16 mph83%29.95 "Hg10 mi
8:30 am72 °FSunny.17 mph83%29.95 "Hg10 mi
7:30 am70 °FSunny.15 mph88%29.92 "Hg10 mi
7:00 am70 °FSunny.16 mph88%29.92 "Hg10 mi
6:30 am70 °FClear.13 mph88%29.92 "Hg10 mi
6:00 am68 °FClear.14 mph94%29.89 "Hg10 mi
5:30 am68 °FClear.13 mph94%29.89 "Hg10 mi
5:00 am68 °FClear.13 mph94%29.89 "Hg10 mi
4:00 am70 °FClear.12 mph88%29.89 "Hg10 mi
3:30 am70 °FClear.13 mph88%29.92 "Hg10 mi
3:00 am70 °FClear.13 mph88%29.92 "Hg10 mi
2:30 am70 °FClear.12 mph88%29.92 "Hg10 mi
2:00 am70 °FClear.12 mph88%29.86 "Hg10 mi
1:30 am70 °FClear.12 mph88%29.95 "Hg10 mi
1:00 am70 °FClear.13 mph88%29.95 "Hg10 mi
12:30 am70 °FClear.14 mph88%29.95 "Hg10 mi
12:00 am70 °FClear.14 mph88%29.98 "Hg10 mi
11:30 pm
Fri, Apr 28
70 °FClear.14 mph88%29.95 "Hg10 mi
11:00 pm70 °FClear.16 mph88%29.95 "Hg10 mi
10:30 pm70 °FClear.16 mph88%29.95 "Hg10 mi
10:00 pm70 °FClear.16 mph88%29.95 "Hg10 mi
9:30 pm72 °FClear.16 mph83%29.95 "Hg10 mi
9:00 pm70 °FClear.16 mph88%29.92 "Hg10 mi
8:30 pm72 °FClear.17 mph83%29.92 "Hg10 mi
8:00 pm72 °FClear.18 mph83%29.89 "Hg10 mi
7:30 pm73 °FClear.20 mph78%29.89 "Hg10 mi
7:00 pm72 °FSunny.21 mph83%29.89 "Hg10 mi
Weather by CustomWeather, © 2017

See weather overviewHow to use our weather pages